Terug naar catalogus

GONETS M 18

ActiefCommunicatiePO
NORAD 46487·PAYLOAD·🇷🇺 Russia

Gelanceerd Sep 28, 2020 vanaf Plesetsk Cosmodrome

Loading…

Volgende Passages (komende 24 uur)

TLE

VersSource: Space-Track

Epoch: Sep 14, 2026, 14:32 UTC

1 46487U 20068B   26257.60611063  .00000022  00000-0  86694-4 0  9991
2 46487  82.4905 290.9653 0019644 193.2644 166.7922 12.42876807270250

Volg GONETS M 18 in realtime met AllMySat

Download on the App Store